User: anonymous   Login
Location: Unspecified
(0.0000°N, 0.0000°E)
Time: 16:55:52
(UTC+00:00)
Language:

USA 276 - Orbit

View from above orbital plane
View from above orbital plane
View from above satellite
View from above satellite

Ground track
Ground track

The orbit data is extracted from the following two-line orbital elements,

1 42689U 17022A   20046.71303225 0.00005000  00000-0  64012-4 0    01
2 42689  49.9973  26.3737 0009224  44.5122 315.4876 15.58432120    00
Epoch (UTC): 15 February 2020 17:06:45
Eccentricity: 0.0009224
inclination: 49.9973°
perigee height: 386 km
apogee height: 398 km
right ascension of ascending node: 26.3737°
argument of perigee: 44.5122°
revolutions per day: 15.58432120
mean anomaly at epoch: 315.4876°
orbit number at epoch: 0

The dashed part of the orbit path shows where the satellite is in the earth's shadow,  

DLR